Wind_Speed
10 10 9 8 9 9 10 11 11 11 12 12 12 12 12 11 11 11 11 11 11 12 12 12 12 12 12 13 12 13 13 14 14 13 13 12 13 13 14 13 12 13 13
11 11 10 10 10 10 10 11 11 11 10 11 12 12 12 11 12 12 13 13 12 12 12 12 12 11 11 12 13 14 14 14 15 15 14 14 14 14 14 14 14 14 14
12 12 12 12 11 11 11 11 11 11 11 12 12 13 13 12 12 12 13 13 14 13 14 14 14 13 13 13 13 14 14 14 15 15 16 15 15 15 14 15 14 14 15
13 13 13 12 12 12 12 11 11 11 11 11 12 12 13 13 14 14 14 14 15 14 15 15 15 14 14 15 14 15 16 16 16 16 16 16 16 16 15 15 16 16 16
14 14 13 13 13 13 12 12 12 12 12 11 11 12 14 14 15 15 15 15 16 15 16 15 15 15 15 15 15 16 16 17 17 16 17 17 17 16 17 17 17 17 17
14 14 14 14 13 13 13 13 14 14 13 12 12 13 14 15 15 15 15 16 15 15 15 15 16 15 16 16 16 17 16 16 16 16 17 17 18 17 18 18 18 18 18
15 15 15 15 14 14 14 15 15 14 14 14 14 15 15 15 16 15 16 16 15 15 15 16 16 16 16 17 16 17 17 17 17 17 17 17 18 19 19 19 19 19 19
16 16 16 15 15 15 15 16 16 16 16 15 15 15 16 16 16 16 17 15 14 15 15 15 15 15 16 16 17 17 17 17 17 17 17 17 19 20 20 20 20 20 20
17 17 17 17 17 17 17 17 17 16 16 16 16 17 17 17 17 17 16 15 15 14 14 15 15 15 15 16 16 17 17 18 18 19 18 18 18 20 20 20 21 21 21
18 18 18 18 18 18 17 17 17 17 17 17 17 18 17 17 17 16 15 15 15 16 16 16 17 17 17 16 17 16 17 18 20 20 20 20 20 20 20 21 22 22 22
19 18 18 18 18 18 18 18 17 17 17 17 17 17 18 17 17 17 16 16 15 15 16 16 17 17 18 18 18 19 19 19 19 20 21 22 22 22 22 22 22 22 22
20 19 19 19 19 19 19 19 19 18 18 18 17 18 18 17 17 18 18 18 17 17 17 16 17 18 19 19 20 20 21 20 21 21 22 22 23 23 23 23 22 22 22
20 20 19 19 19 20 20 19 19 19 19 19 19 19 18 18 19 19 19 18 18 17 17 18 18 19 20 21 21 21 22 22 22 22 22 22 22 23 23 24 23 23 23
18 18 19 19 19 19 20 19 19 19 19 19 18 19 19 20 20 19 19 19 19 18 18 18 18 19 19 20 21 22 22 22 22 22 22 22 22 22 23 23 24 24 24
18 19 20 20 19 19 18 18 18 19 19 18 19 19 20 20 20 20 20 20 20 20 19 19 19 19 19 19 20 20 20 20 21 21 22 22 22 22 22 23 23 24 25
19 19 19 19 19 19 18 18 19 18 18 18 19 20 20 20 21 21 21 21 21 21 21 21 21 20 20 20 20 20 20 20 21 21 21 22 22 22 23 23 23 24 25
19 19 19 19 20 19 18 19 19 18 19 19 19 19 19 20 20 20 21 22 22 22 22 22 21 21 20 20 20 20 20 20 20 21 21 21 21 22 22 23 23 24 25
18 19 19 18 18 17 17 17 18 18 19 20 20 20 20 20 20 21 21 21 22 22 22 22 22 21 21 21 21 21 20 20 21 21 21 21 22 22 23 23 24 25 25
20 20 20 19 19 18 18 18 18 19 19 20 20 20 20 21 20 20 20 21 22 23 22 22 22 22 22 22 21 21 21 21 21 21 21 22 22 23 23 24 24 25 25
20 21 20 20 20 20 20 20 20 20 20 21 20 20 21 20 21 21 21 21 21 22 22 21 21 21 21 21 21 22 22 21 21 22 22 23 23 23 23 24 24 25 25
21 21 21 21 21 21 21 21 21 21 21 21 21 21 21 21 21 21 21 22 22 22 22 22 21 21 22 22 22 22 22 22 22 22 23 22 23 23 23 23 24 24 25
22 22 22 22 22 22 23 23 23 22 22 22 22 22 22 22 22 23 23 23 23 23 22 22 22 23 23 23 23 23 23 23 23 23 22 22 22 22 22 23 23 24 25
23 23 23 23 23 23 23 23 23 23 23 23 22 23 23 23 23 24 24 24 24 24 23 23 23 23 23 22 23 23 23 23 23 23 22 21 22 22 22 22 22 22 23
23 24 24 24 24 23 23 23 23 23 23 22 22 23 23 23 24 24 24 24 25 25 25 24 24 24 24 23 23 22 22 22 22 22 22 22 22 22 22 22 22 22 21
24 24 25 25 24 24 23 23 23 23 24 23 23 23 23 24 24 24 24 25 26 26 27 27 27 26 25 24 24 23 22 22 22 22 22 22 22 22 21 21 21 21 21
24 25 25 26 25 25 24 25 24 24 24 24 24 24 24 24 25 25 25 25 26 26 27 27 26 25 24 24 25 25 24 23 22 21 21 22 22 22 22 21 20 20 21
Wind_Direction
302 299 299 298 297 293 285 280 277 272 273 272 268 267 266 258 253 254 258 258 252 250 253 257 259 255 254 250 250 251 254 250 249 251 250 251 249 249 250 251 253 254 254
302 299 295 297 296 293 288 283 282 278 279 276 271 266 264 261 252 256 259 257 255 252 255 256 257 259 259 253 255 256 255 254 252 252 250 249 250 251 253 252 255 255 256
300 300 297 294 293 292 290 287 284 281 281 276 270 265 263 263 261 260 261 264 262 258 257 258 258 260 258 256 256 256 256 256 256 256 254 254 253 252 255 257 254 254 257
297 299 295 292 290 288 287 288 287 288 289 282 272 265 263 265 267 266 266 265 265 263 259 256 256 257 260 261 259 258 257 257 256 258 259 260 259 258 259 259 256 256 256
295 296 293 292 291 287 286 288 285 285 286 286 278 271 268 265 266 270 269 267 267 263 260 257 254 256 260 262 260 260 259 258 258 259 261 262 261 262 262 262 258 259 257
292 292 291 291 289 286 283 283 283 281 281 280 277 277 272 270 269 270 268 268 268 264 260 258 258 259 261 263 261 262 259 260 260 261 261 261 260 261 262 265 262 261 259
288 288 287 288 286 284 282 281 282 279 276 274 274 276 275 273 270 270 273 273 268 266 264 261 261 262 264 264 264 264 264 263 262 262 262 263 262 262 264 267 265 263 262
284 285 288 285 283 282 280 279 278 277 275 273 272 274 276 273 272 273 274 273 268 268 267 265 266 265 264 264 265 268 269 267 266 264 264 266 266 266 265 264 265 264 263
284 284 284 284 282 281 280 279 276 273 273 273 272 273 275 274 272 275 277 274 271 273 269 266 266 268 267 268 268 267 268 268 268 268 270 270 269 268 266 265 266 266 265
282 282 281 284 281 278 277 279 278 275 273 272 271 273 272 274 274 275 277 279 276 272 270 267 265 266 269 270 269 270 271 271 269 269 270 270 271 271 271 270 268 266 265
280 281 280 280 280 278 277 278 277 276 274 276 275 272 272 273 273 272 274 277 275 274 272 272 271 268 268 270 270 271 274 275 273 273 272 272 271 271 272 271 270 267 267
278 278 277 277 278 278 277 276 275 274 274 275 275 272 272 274 274 274 276 275 273 274 272 271 273 271 271 271 271 274 276 276 276 276 275 274 273 272 272 272 272 270 271
281 279 276 276 276 276 276 275 274 273 272 274 273 272 271 272 273 273 275 276 274 272 272 274 273 275 275 274 274 275 277 276 277 276 275 274 274 272 272 272 272 272 272
281 280 279 280 279 277 276 274 272 271 274 272 271 270 269 271 270 272 274 274 275 274 274 275 274 276 278 280 280 280 280 279 279 277 277 275 274 274 272 271 271 272 274
280 279 280 281 279 279 277 274 274 273 274 272 271 271 270 270 269 271 275 276 276 276 273 273 276 278 279 281 282 281 280 280 281 280 279 276 276 277 274 271 271 272 273
279 280 282 282 282 280 277 275 276 276 275 273 271 272 271 270 270 272 274 275 276 276 274 276 276 277 279 281 281 278 278 279 280 281 280 278 277 277 275 273 273 273 273
278 281 283 284 282 278 275 276 277 276 274 271 272 272 274 273 274 275 274 273 274 276 275 276 276 277 278 281 281 280 279 279 280 281 280 280 279 278 276 272 273 274 275
279 282 285 285 284 282 279 279 277 276 273 273 274 274 274 274 274 276 275 272 273 276 277 275 275 275 276 279 280 280 279 279 279 281 281 282 282 281 278 275 273 273 275
278 280 283 286 287 286 282 282 281 279 277 275 274 273 274 272 272 275 274 271 272 275 277 277 275 275 276 278 278 279 279 279 279 280 281 283 283 281 280 279 276 274 274
279 279 281 283 286 285 281 280 280 280 279 278 276 274 274 270 270 274 275 274 275 277 278 277 276 275 277 277 277 279 278 278 279 281 282 283 284 283 281 281 278 275 273
281 281 280 281 283 284 282 280 279 278 276 275 275 275 274 271 271 273 276 277 277 277 278 278 276 276 277 276 277 277 276 276 280 284 284 283 283 283 284 284 280 276 274
279 280 280 280 282 283 282 280 278 275 275 275 274 274 274 273 273 274 276 277 276 277 277 277 277 277 278 278 277 277 276 275 279 283 284 285 284 284 284 284 283 279 276
277 278 279 279 280 281 281 278 274 275 275 275 273 272 273 273 275 276 276 276 276 277 277 277 277 278 278 278 277 276 276 277 279 282 284 285 285 286 286 287 286 284 280
277 278 280 280 280 280 279 278 276 275 275 275 273 272 273 274 274 276 276 276 275 275 275 276 277 278 277 277 278 277 276 277 279 279 281 283 283 285 287 289 289 287 284
277 278 279 279 280 279 276 275 275 276 277 276 273 273 274 275 277 277 277 276 275 275 275 274 273 274 275 276 276 277 277 277 276 277 280 281 282 283 287 290 291 288 286
278 279 279 280 279 277 275 274 274 275 275 275 274 275 275 276 277 278 277 276 275 276 277 275 272 271 272 273 274 275 275 275 274 275 277 280 281 283 286 289 290 290 289
Height
5864 5863 5862 5862 5862 5861 5861 5861 5862 5862 5863 5863 5864 5864 5865 5866 5867 5867 5868 5868 5870 5871 5872 5873 5874 5875 5876 5877 5878 5879 5880 5881 5882 5883 5884 5884 5885 5887 5888 5889 5890 5890 5892
5862 5861 5861 5860 5860 5860 5859 5859 5860 5860 5860 5861 5861 5862 5863 5863 5864 5865 5866 5866 5867 5868 5870 5871 5871 5872 5873 5874 5876 5877 5877 5878 5879 5880 5881 5882 5883 5884 5885 5886 5887 5887 5888
5860 5859 5859 5858 5858 5857 5857 5857 5857 5857 5858 5858 5859 5859 5860 5861 5862 5863 5863 5864 5865 5866 5867 5868 5868 5870 5871 5872 5873 5873 5874 5875 5876 5877 5878 5878 5879 5880 5881 5882 5883 5884 5885
5857 5857 5857 5856 5855 5855 5855 5855 5855 5856 5856 5856 5856 5857 5857 5858 5859 5860 5861 5861 5862 5863 5864 5865 5866 5866 5867 5868 5869 5870 5870 5871 5872 5873 5874 5875 5876 5877 5878 5879 5879 5880 5881
5855 5854 5854 5854 5853 5853 5853 5853 5853 5853 5853 5853 5854 5854 5855 5855 5856 5857 5858 5858 5858 5859 5860 5861 5862 5863 5864 5865 5865 5866 5867 5868 5868 5869 5870 5871 5872 5873 5874 5875 5876 5876 5877
5852 5852 5851 5851 5850 5850 5850 5850 5850 5850 5850 5851 5851 5851 5852 5852 5853 5854 5854 5854 5855 5856 5856 5857 5858 5859 5860 5861 5861 5862 5863 5864 5864 5865 5866 5866 5867 5868 5869 5870 5871 5872 5873
5849 5849 5848 5848 5847 5847 5847 5847 5847 5847 5847 5847 5848 5848 5848 5849 5850 5850 5851 5851 5851 5852 5853 5854 5855 5855 5856 5857 5857 5858 5859 5860 5861 5861 5862 5862 5863 5864 5865 5866 5866 5867 5868
5846 5845 5845 5844 5844 5844 5844 5844 5844 5844 5844 5844 5844 5844 5845 5846 5846 5846 5847 5847 5848 5848 5849 5850 5851 5851 5852 5853 5853 5854 5855 5855 5856 5856 5857 5858 5858 5859 5860 5861 5861 5862 5863
5842 5842 5841 5841 5841 5840 5840 5840 5840 5840 5840 5840 5840 5841 5841 5842 5842 5842 5842 5843 5844 5845 5845 5846 5847 5847 5848 5849 5849 5849 5850 5851 5851 5852 5852 5853 5853 5854 5855 5855 5856 5857 5857
5838 5838 5837 5837 5837 5836 5836 5836 5835 5835 5835 5835 5836 5836 5837 5837 5838 5839 5839 5839 5840 5840 5841 5842 5843 5843 5844 5844 5845 5845 5845 5846 5846 5847 5847 5847 5848 5848 5849 5849 5850 5851 5851
5834 5834 5833 5833 5832 5832 5832 5831 5831 5831 5831 5831 5831 5832 5832 5833 5834 5835 5835 5836 5836 5836 5837 5837 5838 5839 5839 5840 5840 5840 5841 5841 5841 5842 5842 5842 5843 5843 5843 5843 5844 5844 5845
5829 5829 5828 5828 5828 5827 5827 5827 5827 5827 5827 5827 5827 5827 5828 5829 5829 5830 5831 5831 5832 5832 5832 5833 5833 5833 5834 5834 5835 5835 5835 5836 5836 5836 5837 5837 5837 5837 5837 5838 5838 5838 5839
5825 5824 5824 5823 5823 5822 5822 5822 5822 5821 5822 5822 5822 5823 5823 5824 5825 5825 5826 5826 5827 5827 5827 5828 5828 5828 5828 5829 5829 5830 5830 5830 5831 5831 5831 5830 5831 5831 5831 5832 5832 5832 5833
5820 5819 5819 5818 5818 5817 5817 5816 5816 5816 5816 5817 5817 5818 5818 5819 5820 5820 5821 5821 5822 5823 5823 5823 5823 5823 5823 5823 5823 5824 5824 5824 5825 5825 5825 5825 5825 5825 5825 5825 5826 5826 5826
5816 5815 5814 5813 5813 5812 5811 5811 5811 5811 5811 5811 5812 5812 5813 5814 5814 5815 5815 5816 5817 5817 5818 5818 5818 5818 5818 5818 5818 5818 5818 5818 5818 5818 5818 5818 5818 5818 5818 5819 5819 5819 5820
5810 5810 5809 5808 5807 5806 5806 5806 5806 5806 5806 5807 5807 5807 5808 5808 5809 5810 5810 5810 5811 5811 5812 5812 5813 5813 5813 5812 5812 5813 5813 5813 5812 5812 5812 5811 5811 5811 5811 5812 5812 5812 5812
5806 5805 5804 5803 5803 5802 5801 5801 5801 5800 5801 5801 5802 5802 5803 5803 5804 5804 5805 5805 5805 5806 5806 5806 5806 5807 5807 5807 5807 5807 5807 5807 5807 5806 5806 5805 5805 5804 5804 5805 5805 5805 5805
5801 5800 5799 5798 5798 5797 5797 5796 5796 5796 5796 5796 5796 5797 5797 5798 5799 5799 5799 5800 5800 5800 5800 5801 5801 5801 5801 5801 5801 5801 5801 5801 5801 5800 5799 5799 5798 5798 5797 5797 5797 5797 5797
5796 5795 5795 5794 5793 5792 5792 5792 5791 5791 5791 5791 5791 5791 5792 5792 5793 5793 5794 5794 5794 5794 5795 5795 5795 5795 5796 5795 5795 5795 5795 5795 5795 5794 5793 5792 5791 5791 5790 5790 5789 5789 5789
5790 5790 5790 5789 5789 5788 5787 5786 5786 5786 5785 5785 5785 5786 5786 5787 5787 5788 5788 5788 5788 5789 5789 5789 5789 5789 5790 5789 5789 5789 5789 5788 5788 5787 5787 5786 5785 5784 5783 5782 5782 5781 5780
5785 5785 5785 5784 5784 5783 5781 5781 5780 5780 5779 5780 5780 5780 5781 5781 5782 5782 5782 5783 5783 5783 5783 5783 5783 5783 5783 5783 5783 5783 5782 5782 5782 5781 5780 5779 5779 5777 5776 5775 5774 5773 5772
5779 5779 5778 5778 5778 5777 5776 5775 5774 5773 5773 5774 5774 5774 5775 5775 5776 5776 5776 5776 5776 5777 5777 5777 5777 5777 5777 5777 5776 5776 5776 5776 5775 5775 5774 5773 5772 5771 5770 5768 5767 5766 5765
5773 5772 5772 5772 5771 5770 5769 5768 5767 5767 5767 5767 5768 5768 5768 5768 5769 5769 5769 5770 5770 5770 5770 5770 5770 5771 5771 5770 5770 5769 5769 5769 5769 5768 5767 5767 5766 5764 5763 5761 5760 5759 5758
5767 5766 5766 5765 5764 5763 5763 5762 5761 5761 5761 5761 5761 5761 5762 5762 5762 5762 5763 5763 5763 5763 5763 5763 5764 5764 5764 5764 5764 5763 5763 5762 5762 5761 5761 5760 5759 5758 5757 5755 5753 5752 5751
5761 5760 5759 5759 5758 5757 5756 5756 5755 5755 5755 5755 5755 5755 5755 5755 5755 5755 5756 5756 5756 5756 5756 5756 5756 5756 5757 5757 5756 5756 5756 5756 5756 5755 5754 5754 5753 5752 5751 5749 5747 5746 5744
5754 5753 5753 5752 5751 5750 5750 5749 5749 5749 5749 5749 5749 5749 5749 5749 5748 5748 5748 5748 5748 5748 5748 5748 5749 5749 5749 5749 5749 5749 5749 5749 5749 5749 5748 5747 5747 5745 5745 5743 5742 5740 5739